Main page
METAR-TAF:

METAR-TAF

Airports :

Coast Guard Air Station Port Angeles

Port Angeles, Washington, United States

latitude: 48-08-27N, longitude: 123-24-39W, elevation: 13 ft

Current weather observation

The report was made 38 minutes ago, at 23:55 UTC
Calm wind
Temperature 68°F
Humidity 53%
Pressure 29.99 in. Hg
Visibility: 10 miles
Clear sky

METAR: KNOW 192355Z AUTO 00000KT 10SM CLR 20/10 A2999 RMK AO2 T01950096 10197 20144

Time: 17:33 (00:33 UTC)


TAF: missing

Weather observations and forecasts of more than 4000 airports (METAR and TAF reports).

The available stations are represented by yellow and red dots on the map.

Hover mouse over dot to see the name of the station.

Then click to see weather observations and forecasts.

To change the map : click on the green buttons with a black cross to zoom in, on the green button with a dash to zoom out, or on the green arrows for adjacent maps.


METAR-TAF: